Location: Celina Division
(33.3022°N, 96.7580°W)
Time: 14:12:11
(UTC+00:00)

Meteor 1-25 Rocket - Pass Details

Date: 08 December 2021
Orbit: 837 x 890 km, 81.2° (Epoch: 29 January)

Event Time Altitude Azimuth Distance (km) Brightness Sun altitude
Rises 12:31:20 0° 195° (SSW) 3,412 7.4 -9.9°
Reaches altitude 10° 12:33:47 10° 199° (SSW) 2,472 6.7 -9.4°
Maximum altitude 12:39:19 62° 279° (W) 948 4.2 -8.3°
Drops below altitude 10° 12:44:50 10° 0° (N) 2,461 6.4 -7.2°
Sets 12:47:16 0° 4° (N) 3,396 7.2 -6.8°
